Search for airport 
image banner adimage banner ad
image banner ad

DAAT - Tamenghasset/Aguenar-Hadj Bey Akhamok

Located in Tamanrasset, Algeria

ICAO - DAAT, IATA - TMR

Data provided by Airmate  

General information

Coordinates: N22°48'40" E5°27'3"
Elevation is 4517 feet MSL.
 
View others Airports in Tamanghasset Province

Operational data

Open for public use
Current time UTC:
Current local time:
Weather
METAR: DAAT 301000Z 10009KT 060V130 CAVOK 25/M03 Q1026
TAF: TAF DAAT 300500Z 3006/3106 12012KT CAVOK PROB30 TEMPO 3008/3010 12015G25KT BECMG 3018/3021 04008KT
View NOTAMs / SUP AIP / TFR affecting this airport [VIEW]
Communications frequencies: [VIEW]

Runways:

RWY identifierQFULength (ft)Width (ft)SurfaceLDA (ft)
0222°11811148ASP
20202°11811148
0881°10335148
26261°10335148

Airport contact information

Address: Tamanrasset Algeria

Satellite view of DAAT